TimeEDT,TemperatureF,Dew PointF,Humidity,Sea Level PressureIn,VisibilityMPH,Wind Direction,Wind SpeedMPH,Gust SpeedMPH,PrecipitationIn,Events,Conditions,WindDirDegrees,DateUTC
12:54 AM,69.1,66.9,93,30.03,10.0,North,6.9,-,N/A,,Clear,10,2013-07-30 04:54:00
1:11 AM,69.8,66.2,88,30.03,9.0,North,5.8,-,N/A,,Scattered Clouds,360,2013-07-30 05:11:00
1:30 AM,69.8,66.2,88,30.03,3.0,NNW,4.6,-,N/A,,Mostly Cloudy,330,2013-07-30 05:30:00
1:54 AM,69.1,66.9,93,30.03,3.0,WNW,9.2,-,N/A,,Mostly Cloudy,300,2013-07-30 05:54:00
2:54 AM,69.1,66.9,93,30.04,3.0,WNW,6.9,-,N/A,,Scattered Clouds,300,2013-07-30 06:54:00
3:54 AM,69.1,62.1,78,30.04,10.0,NW,6.9,-,N/A,,Scattered Clouds,310,2013-07-30 07:54:00
4:54 AM,69.1,57.0,65,30.04,10.0,WNW,11.5,-,N/A,,Scattered Clouds,300,2013-07-30 08:54:00
5:54 AM,66.0,57.0,73,30.05,10.0,WNW,10.4,-,N/A,,Scattered Clouds,290,2013-07-30 09:54:00
6:54 AM,69.1,55.0,61,30.06,10.0,WNW,13.8,-,N/A,,Scattered Clouds,300,2013-07-30 10:54:00
7:54 AM,71.1,55.0,57,30.06,10.0,NW,12.7,-,N/A,,Partly Cloudy,310,2013-07-30 11:54:00
8:54 AM,72.0,55.9,57,30.07,10.0,NW,11.5,-,N/A,,Partly Cloudy,310,2013-07-30 12:54:00
9:54 AM,75.0,55.9,51,30.08,10.0,NW,9.2,-,N/A,,Partly Cloudy,310,2013-07-30 13:54:00
10:54 AM,77.0,57.0,50,30.09,10.0,Variable,6.9,-,N/A,,Scattered Clouds,0,2013-07-30 14:54:00
11:54 AM,79.0,55.9,45,30.08,10.0,WNW,8.1,-,N/A,,Scattered Clouds,290,2013-07-30 15:54:00
12:54 PM,80.1,54.0,40,30.06,10.0,WNW,4.6,-,N/A,,Scattered Clouds,300,2013-07-30 16:54:00
1:54 PM,80.1,55.0,42,30.05,10.0,WSW,8.1,18.4,N/A,,Scattered Clouds,250,2013-07-30 17:54:00
2:54 PM,82.0,54.0,38,30.05,10.0,WNW,10.4,18.4,N/A,,Mostly Cloudy,290,2013-07-30 18:54:00
3:54 PM,82.9,52.0,34,30.03,10.0,NNW,11.5,19.6,N/A,,Mostly Cloudy,340,2013-07-30 19:54:00
4:54 PM,78.1,59.0,52,30.03,10.0,Variable,3.5,-,N/A,,Mostly Cloudy,0,2013-07-30 20:54:00
5:54 PM,73.9,62.1,66,30.04,10.0,SE,8.1,-,N/A,,Mostly Cloudy,130,2013-07-30 21:54:00
6:54 PM,75.9,62.1,62,30.05,10.0,SE,5.8,-,N/A,,Mostly Cloudy,140,2013-07-30 22:54:00
7:54 PM,73.9,60.1,62,30.07,10.0,East,6.9,-,N/A,,Mostly Cloudy,80,2013-07-30 23:54:00
8:54 PM,73.0,64.9,76,30.08,10.0,East,5.8,-,N/A,,Mostly Cloudy,90,2013-07-31 00:54:00
9:54 PM,75.9,57.0,52,30.09,10.0,West,3.5,-,N/A,,Mostly Cloudy,280,2013-07-31 01:54:00
10:54 PM,75.0,57.0,53,30.09,10.0,WNW,8.1,-,N/A,,Scattered Clouds,290,2013-07-31 02:54:00
11:54 PM,73.0,57.0,57,30.08,10.0,WNW,10.4,-,N/A,,Clear,290,2013-07-31 03:54:00